Find Starlink 35650

NORAD ID: 66573 Int'l Des: 2025-268 Owner: SPXS Country: US Constellation: starlink operational
LEOCIRCULAR

現在のビュー

3D地球を読み込み中...

Starlink 35650について

説明を読み込み中...

次回通過

Passes for default location (London). Set your location on the main map for personalized predictions.

高度履歴

Loading altitude history...

軌道要素

1 66573U 25268S 26150.59814578 .00020227 00000-0 74241-3 0 9995
2 66573 43.0014 244.7473 0001691 270.8046 89.2612 15.27586001 30484
Epoch: May 30, 2026 • Age: 27 hours

現在のステータス

高度 486.6 km
速度 7.63 km/s
衛星直下点 40.42°N, 158.73°W
打ち上げ日 Nov 21, 2025
運用期間 0.5 years
タイプ internet

技術仕様

分類 Payload
質量 575.00 kg
乾燥質量 530.00 kg
総質量 575.00 kg
長さ 0.30 m
直径 4.10 m
スパン 29.00 m
形状 Box + pan
製造者 SPXS
バスタイプ Starlink V2MO
フェーズステータス In Orbit
所有者/国 SPXS/US

Most Searched